PRIVATE WETTERSTATION BILLIGHEIM-ALLFELD                       ZURCK
Wetterdaten: Mittwoch, 20.08.2014
Datum Zeit Temp. A. Temp. A. min Temp. A. max Feuchte A. Luftdruck Regen Wind Richtung Richtung Sonnenschein ET Solar Taupunkt Windchill Windben Empfang
20.08.2014 00:00 12,9 C 12,9 C 13,0 C 76 % 1014,4 hPa 0,0 l/m 2,0 km/h (1 Bft) W-SW 252 0 min 0,000 mm 0 W/m 8,8 C 12,9 C 6,4 km/h (2 Bft) 98 %
20.08.2014 00:10 12,9 C 12,9 C 12,9 C 76 % 1014,5 hPa 0,0 l/m 1,3 km/h (1 Bft) W 260 0 min 0,000 mm 0 W/m 8,8 C 12,9 C 9,7 km/h (2 Bft) 97 %
20.08.2014 00:20 12,9 C 12,9 C 12,9 C 76 % 1014,6 hPa 0,0 l/m 1,8 km/h (1 Bft) W-NW 290 0 min 0,000 mm 0 W/m 8,8 C 12,9 C 9,7 km/h (2 Bft) 97 %
20.08.2014 00:30 13,0 C 12,9 C 13,0 C 76 % 1014,6 hPa 0,0 l/m 2,9 km/h (1 Bft) W-NW 284 0 min 0,000 mm 0 W/m 8,9 C 13,0 C 11,3 km/h (2 Bft) 98 %
20.08.2014 00:40 13,1 C 13,0 C 13,1 C 75 % 1014,6 hPa 0,0 l/m 1,6 km/h (1 Bft) W-NW 296 0 min 0,000 mm 0 W/m 8,8 C 13,1 C 9,7 km/h (2 Bft) 97 %
20.08.2014 00:50 13,1 C 13,1 C 13,1 C 75 % 1014,7 hPa 0,0 l/m 1,5 km/h (1 Bft) W-NW 291 0 min 0,000 mm 0 W/m 8,8 C 13,1 C 9,7 km/h (2 Bft) 97 %
20.08.2014 01:00 12,9 C 12,9 C 13,1 C 77 % 1014,8 hPa 0,0 l/m 0,0 km/h (0 Bft) W-NW 291 0 min 0,025 mm 0 W/m 9,0 C 12,9 C 1,6 km/h (1 Bft) 97 %
20.08.2014 01:10 12,7 C 12,7 C 12,9 C 78 % 1014,8 hPa 0,0 l/m 0,0 km/h (0 Bft) W-NW 291 0 min 0,000 mm 0 W/m 9,0 C 12,7 C 1,6 km/h (1 Bft) 98 %
20.08.2014 01:20 12,6 C 12,6 C 12,7 C 79 % 1014,9 hPa 0,0 l/m 0,0 km/h (0 Bft) W-NW 291 0 min 0,000 mm 0 W/m 9,1 C 12,6 C 0,0 km/h (0 Bft) 97 %
20.08.2014 01:30 12,5 C 12,5 C 12,6 C 80 % 1014,9 hPa 0,0 l/m 0,0 km/h (0 Bft) W-NW 291 0 min 0,000 mm 0 W/m 9,1 C 12,5 C 0,0 km/h (0 Bft) 98 %
20.08.2014 01:40 12,4 C 12,4 C 12,5 C 81 % 1014,9 hPa 0,0 l/m 0,0 km/h (0 Bft) W-NW 291 0 min 0,000 mm 0 W/m 9,2 C 12,4 C 0,0 km/h (0 Bft) 98 %
20.08.2014 01:50 12,3 C 12,3 C 12,4 C 81 % 1014,9 hPa 0,0 l/m 0,1 km/h (0 Bft) W-NW 291 0 min 0,000 mm 0 W/m 9,1 C 12,3 C 1,6 km/h (1 Bft) 97 %
20.08.2014 02:00 12,3 C 12,3 C 12,3 C 80 % 1014,9 hPa 0,0 l/m 0,2 km/h (0 Bft) W-NW 291 0 min 0,026 mm 0 W/m 8,9 C 12,3 C 3,2 km/h (1 Bft) 97 %
20.08.2014 02:10 12,2 C 12,2 C 12,3 C 80 % 1014,9 hPa 0,0 l/m 0,2 km/h (0 Bft) W-NW 291 0 min 0,000 mm 0 W/m 8,9 C 12,2 C 3,2 km/h (1 Bft) 97 %
20.08.2014 02:20 12,1 C 12,1 C 12,2 C 80 % 1014,8 hPa 0,0 l/m 1,5 km/h (1 Bft) W-NW 297 0 min 0,000 mm 0 W/m 8,8 C 12,1 C 6,4 km/h (2 Bft) 98 %
20.08.2014 02:30 12,0 C 12,0 C 12,1 C 80 % 1014,7 hPa 0,0 l/m 0,4 km/h (0 Bft) W-NW 297 0 min 0,000 mm 0 W/m 8,7 C 12,0 C 6,4 km/h (2 Bft) 97 %
20.08.2014 02:40 11,8 C 11,8 C 12,0 C 80 % 1014,7 hPa 0,0 l/m 0,2 km/h (0 Bft) W-NW 296 0 min 0,000 mm 0 W/m 8,5 C 11,8 C 6,4 km/h (2 Bft) 97 %
20.08.2014 02:50 11,6 C 11,6 C 11,8 C 81 % 1014,8 hPa 0,0 l/m 0,0 km/h (0 Bft) W-NW 296 0 min 0,000 mm 0 W/m 8,5 C 11,6 C 1,6 km/h (1 Bft) 98 %
20.08.2014 03:00 11,2 C 11,2 C 11,6 C 82 % 1014,7 hPa 0,0 l/m 0,1 km/h (0 Bft) W-NW 296 0 min 0,025 mm 0 W/m 8,2 C 11,2 C 3,2 km/h (1 Bft) 97 %
20.08.2014 03:10 10,9 C 10,9 C 11,2 C 82 % 1014,8 hPa 0,0 l/m 0,1 km/h (0 Bft) W-NW 296 0 min 0,000 mm 0 W/m 7,9 C 10,9 C 3,2 km/h (1 Bft) 98 %
20.08.2014 03:20 10,8 C 10,8 C 10,9 C 82 % 1014,9 hPa 0,0 l/m 0,1 km/h (0 Bft) W-NW 296 0 min 0,000 mm 0 W/m 7,9 C 10,8 C 4,8 km/h (1 Bft) 97 %
20.08.2014 03:30 10,7 C 10,7 C 10,8 C 81 % 1015,0 hPa 0,0 l/m 0,9 km/h (0 Bft) W-NW 292 0 min 0,000 mm 0 W/m 7,6 C 10,7 C 6,4 km/h (2 Bft) 98 %
20.08.2014 03:40 10,6 C 10,6 C 10,7 C 82 % 1015,0 hPa 0,0 l/m 0,0 km/h (0 Bft) W-NW 292 0 min 0,000 mm 0 W/m 7,7 C 10,6 C 1,6 km/h (1 Bft) 98 %
20.08.2014 03:50 10,4 C 10,4 C 10,6 C 81 % 1015,1 hPa 0,0 l/m 0,2 km/h (0 Bft) W-NW 294 0 min 0,000 mm 0 W/m 7,3 C 10,4 C 3,2 km/h (1 Bft) 97 %
20.08.2014 04:00 10,2 C 10,2 C 10,4 C 82 % 1015,2 hPa 0,0 l/m 0,1 km/h (0 Bft) W-NW 295 0 min 0,026 mm 0 W/m 7,3 C 10,2 C 3,2 km/h (1 Bft) 97 %
20.08.2014 04:10 10,1 C 10,1 C 10,2 C 82 % 1015,3 hPa 0,0 l/m 0,0 km/h (0 Bft) W-NW 295 0 min 0,000 mm 0 W/m 7,2 C 10,1 C 1,6 km/h (1 Bft) 97 %
20.08.2014 04:20 10,0 C 10,0 C 10,1 C 83 % 1015,4 hPa 0,0 l/m 0,0 km/h (0 Bft) W-NW 295 0 min 0,000 mm 0 W/m 7,2 C 10,0 C 1,6 km/h (1 Bft) 97 %
20.08.2014 04:30 9,7 C 9,7 C 10,0 C 83 % 1015,3 hPa 0,0 l/m 0,0 km/h (0 Bft) W-NW 295 0 min 0,000 mm 0 W/m 7,0 C 9,7 C 0,0 km/h (0 Bft) 97 %
20.08.2014 04:40 9,3 C 9,3 C 9,7 C 84 % 1015,4 hPa 0,0 l/m 0,0 km/h (0 Bft) W-NW 295 0 min 0,000 mm 0 W/m 6,7 C 9,3 C 1,6 km/h (1 Bft) 98 %
20.08.2014 04:50 9,1 C 9,1 C 9,3 C 85 % 1015,5 hPa 0,0 l/m 0,0 km/h (0 Bft) W-NW 295 0 min 0,000 mm 0 W/m 6,7 C 9,1 C 0,0 km/h (0 Bft) 98 %
20.08.2014 05:00 8,9 C 8,9 C 9,1 C 86 % 1015,6 hPa 0,0 l/m 0,0 km/h (0 Bft) W-NW 295 0 min 0,000 mm 0 W/m 6,7 C 8,9 C 0,0 km/h (0 Bft) 97 %
20.08.2014 05:10 8,8 C 8,8 C 8,9 C 86 % 1015,6 hPa 0,0 l/m 0,1 km/h (0 Bft) W-NW 295 0 min 0,000 mm 0 W/m 6,6 C 8,8 C 3,2 km/h (1 Bft) 97 %
20.08.2014 05:20 8,9 C 8,8 C 8,9 C 86 % 1015,5 hPa 0,0 l/m 0,1 km/h (0 Bft) W-NW 295 0 min 0,000 mm 0 W/m 6,7 C 8,9 C 3,2 km/h (1 Bft) 97 %
20.08.2014 05:30 8,9 C 8,9 C 9,0 C 86 % 1015,6 hPa 0,0 l/m 0,0 km/h (0 Bft) W-NW 295 0 min 0,000 mm 0 W/m 6,7 C 8,9 C 0,0 km/h (0 Bft) 97 %
20.08.2014 05:40 8,7 C 8,7 C 8,9 C 86 % 1015,7 hPa 0,0 l/m 0,0 km/h (0 Bft) W-NW 295 0 min 0,000 mm 0 W/m 6,5 C 8,7 C 0,0 km/h (0 Bft) 97 %
20.08.2014 05:50 8,6 C 8,6 C 8,7 C 86 % 1015,7 hPa 0,0 l/m 0,0 km/h (0 Bft) W-NW 295 0 min 0,000 mm 0 W/m 6,4 C 8,6 C 1,6 km/h (1 Bft) 97 %
20.08.2014 06:00 8,3 C 8,3 C 8,6 C 86 % 1015,8 hPa 0,0 l/m 0,1 km/h (0 Bft) W-NW 295 0 min 0,000 mm 0 W/m 6,1 C 8,3 C 1,6 km/h (1 Bft) 97 %
20.08.2014 06:10 8,3 C 8,2 C 8,3 C 87 % 1015,8 hPa 0,0 l/m 0,1 km/h (0 Bft) W-NW 295 0 min 0,000 mm 0 W/m 6,3 C 8,3 C 1,6 km/h (1 Bft) 97 %
20.08.2014 06:20 8,1 C 8,1 C 8,3 C 87 % 1015,9 hPa 0,0 l/m 0,0 km/h (0 Bft) W-NW 295 0 min 0,000 mm 0 W/m 6,1 C 8,1 C 1,6 km/h (1 Bft) 97 %
20.08.2014 06:30 8,2 C 8,1 C 8,2 C 87 % 1016,0 hPa 0,0 l/m 0,0 km/h (0 Bft) W-NW 295 0 min 0,000 mm 5 W/m 6,2 C 8,2 C 1,6 km/h (1 Bft) 97 %
20.08.2014 06:40 8,3 C 8,2 C 8,3 C 87 % 1016,1 hPa 0,0 l/m 0,0 km/h (0 Bft) W-NW 295 0 min 0,000 mm 9 W/m 6,3 C 8,3 C 1,6 km/h (1 Bft) 97 %
20.08.2014 06:50 8,5 C 8,3 C 8,5 C 87 % 1016,2 hPa 0,0 l/m 0,2 km/h (0 Bft) W-NW 295 0 min 0,000 mm 12 W/m 6,5 C 8,5 C 4,8 km/h (1 Bft) 96 %
20.08.2014 07:00 8,7 C 8,5 C 8,7 C 88 % 1016,2 hPa 0,0 l/m 1,1 km/h (1 Bft) SO 128 0 min 0,000 mm 16 W/m 6,8 C 8,7 C 4,8 km/h (1 Bft) 97 %
20.08.2014 07:10 8,7 C 8,7 C 8,7 C 88 % 1016,3 hPa 0,0 l/m 0,0 km/h (0 Bft) SO 128 0 min 0,000 mm 21 W/m 6,8 C 8,7 C 1,6 km/h (1 Bft) 97 %
20.08.2014 07:20 8,8 C 8,7 C 8,8 C 88 % 1016,4 hPa 0,0 l/m 0,0 km/h (0 Bft) SO 128 0 min 0,000 mm 30 W/m 6,9 C 8,8 C 0,0 km/h (0 Bft) 97 %
20.08.2014 07:30 8,7 C 8,7 C 8,8 C 88 % 1016,4 hPa 0,0 l/m 0,0 km/h (0 Bft) SO 128 0 min 0,000 mm 47 W/m 6,8 C 8,7 C 0,0 km/h (0 Bft) 98 %
20.08.2014 07:40 8,9 C 8,7 C 8,9 C 88 % 1016,3 hPa 0,0 l/m 0,0 km/h (0 Bft) SO 128 0 min 0,000 mm 42 W/m 7,0 C 8,9 C 0,0 km/h (0 Bft) 97 %
20.08.2014 07:50 9,1 C 8,9 C 9,1 C 88 % 1016,3 hPa 0,0 l/m 0,0 km/h (0 Bft) SO 128 0 min 0,000 mm 69 W/m 7,2 C 9,1 C 0,0 km/h (0 Bft) 98 %
20.08.2014 08:00 9,3 C 9,1 C 9,3 C 88 % 1016,5 hPa 0,0 l/m 0,0 km/h (0 Bft) SO 128 0 min 0,025 mm 130 W/m 7,4 C 9,3 C 0,0 km/h (0 Bft) 97 %
20.08.2014 08:10 9,6 C 9,3 C 9,6 C 88 % 1016,5 hPa 0,0 l/m 0,0 km/h (0 Bft) SO 128 0 min 0,000 mm 125 W/m 7,7 C 9,6 C 0,0 km/h (0 Bft) 98 %
20.08.2014 08:20 10,0 C 9,6 C 10,0 C 88 % 1016,5 hPa 0,0 l/m 0,0 km/h (0 Bft) SO 128 0 min 0,000 mm 151 W/m 8,1 C 10,0 C 1,6 km/h (1 Bft) 97 %
20.08.2014 08:30 10,6 C 10,0 C 10,6 C 88 % 1016,5 hPa 0,0 l/m 0,0 km/h (0 Bft) SO 128 10 min 0,000 mm 171 W/m 8,7 C 10,6 C 0,0 km/h (0 Bft) 97 %
20.08.2014 08:40 11,2 C 10,6 C 11,2 C 87 % 1016,6 hPa 0,0 l/m 0,0 km/h (0 Bft) SO 128 10 min 0,000 mm 399 W/m 9,1 C 11,2 C 0,0 km/h (0 Bft) 98 %
20.08.2014 08:50 12,0 C 11,2 C 12,0 C 85 % 1016,6 hPa 0,0 l/m 0,0 km/h (0 Bft) SO 128 10 min 0,000 mm 278 W/m 9,6 C 12,0 C 1,6 km/h (1 Bft) 99 %
20.08.2014 09:00 12,6 C 12,0 C 12,6 C 84 % 1016,6 hPa 0,0 l/m 0,1 km/h (0 Bft) S-SO 148 10 min 0,102 mm 302 W/m 10,0 C 12,6 C 3,2 km/h (1 Bft) 100 %
20.08.2014 09:10 13,3 C 12,6 C 13,3 C 79 % 1016,7 hPa 0,0 l/m 0,0 km/h (0 Bft) S-SO 148 10 min 0,000 mm 557 W/m 9,7 C 13,3 C 0,0 km/h (0 Bft) 100 %
20.08.2014 09:20 13,9 C 13,3 C 13,9 C 76 % 1016,6 hPa 0,0 l/m 0,1 km/h (0 Bft) W 263 10 min 0,000 mm 221 W/m 9,7 C 13,9 C 1,6 km/h (1 Bft) 100 %
20.08.2014 09:30 14,0 C 13,9 C 14,0 C 72 % 1016,7 hPa 0,0 l/m 0,0 km/h (0 Bft) W 264 10 min 0,000 mm 380 W/m 9,0 C 14,0 C 1,6 km/h (1 Bft) 100 %
20.08.2014 09:40 14,6 C 14,0 C 14,6 C 74 % 1016,8 hPa 0,0 l/m 0,2 km/h (0 Bft) W 263 10 min 0,000 mm 362 W/m 10,0 C 14,6 C 4,8 km/h (1 Bft) 100 %
20.08.2014 09:50 15,1 C 14,6 C 15,1 C 71 % 1016,8 hPa 0,0 l/m 0,0 km/h (0 Bft) W 263 10 min 0,000 mm 348 W/m 9,9 C 15,1 C 1,6 km/h (1 Bft) 100 %
20.08.2014 10:00 15,4 C 15,1 C 15,4 C 69 % 1016,7 hPa 0,0 l/m 0,2 km/h (0 Bft) NW 309 10 min 0,203 mm 591 W/m 9,7 C 15,4 C 4,8 km/h (1 Bft) 100 %
20.08.2014 10:10 15,7 C 15,3 C 15,7 C 64 % 1016,8 hPa 0,0 l/m 0,0 km/h (0 Bft) NW 309 10 min 0,000 mm 394 W/m 8,9 C 15,7 C 1,6 km/h (1 Bft) 100 %
20.08.2014 10:20 15,7 C 15,7 C 15,8 C 65 % 1016,6 hPa 0,0 l/m 1,0 km/h (0 Bft) O-SO 120 10 min 0,000 mm 779 W/m 9,1 C 15,7 C 8,0 km/h (2 Bft) 100 %
20.08.2014 10:30 16,0 C 15,6 C 16,0 C 64 % 1016,6 hPa 0,0 l/m 0,4 km/h (0 Bft) N 355 10 min 0,000 mm 408 W/m 9,2 C 16,0 C 4,8 km/h (1 Bft) 100 %
20.08.2014 10:40 15,9 C 15,9 C 16,1 C 66 % 1016,6 hPa 0,0 l/m 1,7 km/h (1 Bft) NW 315 10 min 0,000 mm 485 W/m 9,6 C 15,9 C 8,0 km/h (2 Bft) 98 %
20.08.2014 10:50 15,8 C 15,8 C 15,9 C 66 % 1016,6 hPa 0,0 l/m 1,0 km/h (0 Bft) N-NW 331 10 min 0,000 mm 410 W/m 9,5 C 15,8 C 6,4 km/h (2 Bft) 100 %
20.08.2014 11:00 15,7 C 15,7 C 15,8 C 65 % 1016,6 hPa 0,0 l/m 0,8 km/h (0 Bft) N-NW 330 10 min 0,279 mm 399 W/m 9,1 C 15,7 C 8,0 km/h (2 Bft) 99 %
20.08.2014 11:10 15,9 C 15,7 C 15,9 C 63 % 1016,6 hPa 0,0 l/m 1,4 km/h (1 Bft) W-NW 300 10 min 0,000 mm 401 W/m 8,9 C 15,9 C 8,0 km/h (2 Bft) 100 %
20.08.2014 11:20 16,1 C 15,9 C 16,1 C 63 % 1016,6 hPa 0,0 l/m 3,4 km/h (1 Bft) N-NW 329 10 min 0,000 mm 415 W/m 9,1 C 16,1 C 16,1 km/h (3 Bft) 100 %
20.08.2014 11:30 16,1 C 16,1 C 16,2 C 63 % 1016,5 hPa 0,0 l/m 0,9 km/h (0 Bft) NW 321 10 min 0,000 mm 408 W/m 9,1 C 16,1 C 6,4 km/h (2 Bft) 100 %
20.08.2014 11:40 16,3 C 16,1 C 16,3 C 62 % 1016,5 hPa 0,0 l/m 1,3 km/h (1 Bft) NW 309 10 min 0,000 mm 452 W/m 9,0 C 16,3 C 9,7 km/h (2 Bft) 100 %
20.08.2014 11:50 16,6 C 16,3 C 16,6 C 64 % 1016,5 hPa 0,0 l/m 1,6 km/h (1 Bft) W-NW 296 10 min 0,000 mm 376 W/m 9,8 C 16,6 C 6,4 km/h (2 Bft) 100 %
20.08.2014 12:00 16,7 C 16,6 C 16,7 C 61 % 1016,5 hPa 0,0 l/m 1,5 km/h (1 Bft) W-NW 301 10 min 0,229 mm 371 W/m 9,1 C 16,7 C 8,0 km/h (2 Bft) 99 %
20.08.2014 12:10 16,6 C 16,6 C 16,7 C 62 % 1016,4 hPa 0,0 l/m 2,3 km/h (1 Bft) S-SW 205 10 min 0,000 mm 371 W/m 9,3 C 16,6 C 9,7 km/h (2 Bft) 100 %
20.08.2014 12:20 16,1 C 16,1 C 16,6 C 62 % 1016,3 hPa 0,0 l/m 0,2 km/h (0 Bft) S-SW 202 10 min 0,000 mm 371 W/m 8,8 C 16,1 C 4,8 km/h (1 Bft) 100 %
20.08.2014 12:30 16,2 C 16,1 C 16,2 C 59 % 1016,4 hPa 0,0 l/m 2,6 km/h (1 Bft) W 275 10 min 0,000 mm 434 W/m 8,2 C 16,2 C 8,0 km/h (2 Bft) 100 %
20.08.2014 12:40 16,8 C 16,2 C 16,8 C 55 % 1016,3 hPa 0,0 l/m 1,9 km/h (1 Bft) W-NW 294 10 min 0,000 mm 638 W/m 7,7 C 16,8 C 9,7 km/h (2 Bft) 100 %
20.08.2014 12:50 17,2 C 16,8 C 17,2 C 54 % 1016,2 hPa 0,0 l/m 2,0 km/h (1 Bft) S-SW 207 10 min 0,000 mm 657 W/m 7,8 C 17,2 C 9,7 km/h (2 Bft) 100 %
20.08.2014 13:00 17,4 C 17,2 C 17,4 C 48 % 1016,3 hPa 0,0 l/m 5,2 km/h (1 Bft) W 277 10 min 0,305 mm 749 W/m 6,3 C 17,4 C 17,7 km/h (3 Bft) 99 %
20.08.2014 13:10 17,7 C 17,4 C 17,7 C 51 % 1016,3 hPa 0,0 l/m 0,7 km/h (0 Bft) W 268 10 min 0,000 mm 812 W/m 7,4 C 17,7 C 6,4 km/h (2 Bft) 100 %
20.08.2014 13:20 18,1 C 17,7 C 18,1 C 48 % 1016,3 hPa 0,0 l/m 1,2 km/h (1 Bft) NO 48 10 min 0,000 mm 740 W/m 6,9 C 18,1 C 6,4 km/h (2 Bft) 100 %
20.08.2014 13:30 18,3 C 18,0 C 18,3 C 52 % 1016,2 hPa 0,0 l/m 4,0 km/h (1 Bft) W-SW 238 10 min 0,000 mm 823 W/m 8,3 C 18,3 C 16,1 km/h (3 Bft) 100 %
20.08.2014 13:40 18,2 C 18,2 C 18,3 C 48 % 1016,2 hPa 0,0 l/m 0,9 km/h (0 Bft) S-SW 206 10 min 0,000 mm 420 W/m 7,0 C 18,2 C 11,3 km/h (2 Bft) 100 %
20.08.2014 13:50 18,0 C 17,9 C 18,2 C 54 % 1016,1 hPa 0,0 l/m 2,2 km/h (1 Bft) SW 219 10 min 0,000 mm 664 W/m 8,6 C 18,0 C 17,7 km/h (3 Bft) 100 %
20.08.2014 14:00 17,9 C 17,9 C 18,0 C 53 % 1016,1 hPa 0,0 l/m 4,1 km/h (1 Bft) S 186 10 min 0,000 mm 473 W/m 8,2 C 17,9 C 14,5 km/h (3 Bft) 100 %
20.08.2014 14:10 18,1 C 17,9 C 18,1 C 50 % 1016,2 hPa 0,0 l/m 2,7 km/h (1 Bft) N-NW 327 10 min 0,381 mm 707 W/m 7,5 C 18,1 C 12,9 km/h (3 Bft) 99 %
20.08.2014 14:20 18,4 C 18,1 C 18,4 C 53 % 1016,1 hPa 0,0 l/m 2,6 km/h (1 Bft) S-SW 207 10 min 0,000 mm 708 W/m 8,6 C 18,4 C 12,9 km/h (3 Bft) 99 %
20.08.2014 14:30 18,7 C 18,4 C 18,7 C 50 % 1016,1 hPa 0,0 l/m 5,4 km/h (1 Bft) S-SW 211 10 min 0,000 mm 756 W/m 8,1 C 18,7 C 14,5 km/h (3 Bft) 100 %
20.08.2014 14:40 18,2 C 18,2 C 18,7 C 51 % 1016,0 hPa 0,0 l/m 3,3 km/h (1 Bft) SW 229 10 min 0,000 mm 833 W/m 7,9 C 18,2 C 14,5 km/h (3 Bft) 100 %
20.08.2014 14:50 18,1 C 18,1 C 18,2 C 54 % 1015,8 hPa 0,0 l/m 2,2 km/h (1 Bft) S 173 10 min 0,000 mm 420 W/m 8,6 C 18,1 C 14,5 km/h (3 Bft) 100 %
20.08.2014 15:00 18,0 C 18,0 C 18,1 C 55 % 1015,8 hPa 0,0 l/m 3,3 km/h (1 Bft) S-SW 204 10 min 0,355 mm 422 W/m 8,8 C 18,0 C 9,7 km/h (2 Bft) 99 %
20.08.2014 15:10 17,6 C 17,6 C 18,0 C 56 % 1015,7 hPa 0,0 l/m 2,1 km/h (1 Bft) S-SW 204 10 min 0,000 mm 406 W/m 8,7 C 17,6 C 11,3 km/h (2 Bft) 99 %
20.08.2014 15:20 17,9 C 17,6 C 17,9 C 53 % 1015,7 hPa 0,0 l/m 2,4 km/h (1 Bft) W-NW 290 10 min 0,000 mm 492 W/m 8,2 C 17,9 C 8,0 km/h (2 Bft) 99 %
20.08.2014 15:30 18,4 C 17,9 C 18,4 C 52 % 1015,7 hPa 0,0 l/m 3,5 km/h (1 Bft) S-SW 201 10 min 0,000 mm 696 W/m 8,4 C 18,4 C 12,9 km/h (3 Bft) 100 %
20.08.2014 15:40 18,3 C 18,3 C 18,5 C 53 % 1015,7 hPa 0,0 l/m 0,9 km/h (0 Bft) S-SO 161 10 min 0,000 mm 315 W/m 8,6 C 18,3 C 8,0 km/h (2 Bft) 100 %
20.08.2014 15:50 18,1 C 18,1 C 18,3 C 55 % 1015,6 hPa 0,0 l/m 2,6 km/h (1 Bft) W-SW 245 10 min 0,000 mm 260 W/m 8,9 C 18,1 C 9,7 km/h (2 Bft) 100 %
20.08.2014 16:00 17,9 C 17,9 C 18,1 C 54 % 1015,5 hPa 0,0 l/m 3,7 km/h (1 Bft) W-NW 292 10 min 0,280 mm 250 W/m 8,5 C 17,9 C 14,5 km/h (3 Bft) 100 %
20.08.2014 16:10 17,9 C 17,9 C 17,9 C 54 % 1015,4 hPa 0,0 l/m 2,2 km/h (1 Bft) NW 316 10 min 0,000 mm 288 W/m 8,5 C 17,9 C 9,7 km/h (2 Bft) 100 %
20.08.2014 16:20 18,1 C 17,9 C 18,1 C 51 % 1015,5 hPa 0,0 l/m 1,3 km/h (1 Bft) NW 321 10 min 0,000 mm 315 W/m 7,8 C 18,1 C 8,0 km/h (2 Bft) 100 %
20.08.2014 16:30 18,1 C 18,1 C 18,1 C 53 % 1015,5 hPa 0,0 l/m 7,0 km/h (2 Bft) W 268 10 min 0,000 mm 315 W/m 8,4 C 17,8 C 14,5 km/h (3 Bft) 100 %
20.08.2014 16:40 18,1 C 18,1 C 18,2 C 52 % 1015,5 hPa 0,0 l/m 5,7 km/h (1 Bft) NW 323 10 min 0,000 mm 253 W/m 8,1 C 18,1 C 14,5 km/h (3 Bft) 99 %
20.08.2014 16:50 17,8 C 17,8 C 18,1 C 52 % 1015,5 hPa 0,0 l/m 2,7 km/h (1 Bft) W-NW 296 10 min 0,000 mm 237 W/m 7,8 C 17,8 C 14,5 km/h (3 Bft) 100 %
20.08.2014 17:00 17,7 C 17,7 C 17,8 C 58 % 1015,4 hPa 0,0 l/m 2,3 km/h (1 Bft) W 274 10 min 0,177 mm 234 W/m 9,3 C 17,7 C 14,5 km/h (3 Bft) 100 %
20.08.2014 17:10 17,7 C 17,7 C 17,7 C 56 % 1015,5 hPa 0,0 l/m 2,9 km/h (1 Bft) W-NW 302 10 min 0,000 mm 218 W/m 8,8 C 17,7 C 9,7 km/h (2 Bft) 100 %
20.08.2014 17:20 17,6 C 17,6 C 17,8 C 53 % 1015,5 hPa 0,0 l/m 1,8 km/h (1 Bft) W-NW 300 10 min 0,000 mm 188 W/m 7,9 C 17,6 C 9,7 km/h (2 Bft) 100 %
20.08.2014 17:30 17,4 C 17,4 C 17,6 C 54 % 1015,5 hPa 0,0 l/m 1,1 km/h (1 Bft) W 259 10 min 0,000 mm 193 W/m 8,0 C 17,4 C 9,7 km/h (2 Bft) 99 %
20.08.2014 17:40 17,3 C 17,3 C 17,4 C 53 % 1015,4 hPa 0,0 l/m 5,0 km/h (1 Bft) W 260 10 min 0,000 mm 195 W/m 7,6 C 17,3 C 11,3 km/h (2 Bft) 100 %
20.08.2014 17:50 17,4 C 17,3 C 17,4 C 56 % 1015,4 hPa 0,0 l/m 3,0 km/h (1 Bft) NW 312 0 min 0,000 mm 142 W/m 8,5 C 17,4 C 11,3 km/h (2 Bft) 99 %
20.08.2014 18:00 17,1 C 17,1 C 17,4 C 59 % 1015,2 hPa 0,0 l/m 1,4 km/h (1 Bft) W 265 0 min 0,127 mm 118 W/m 9,0 C 17,1 C 8,0 km/h (2 Bft) 100 %
20.08.2014 18:10 16,9 C 16,9 C 17,1 C 59 % 1015,2 hPa 0,0 l/m 1,4 km/h (1 Bft) SW 232 0 min 0,000 mm 104 W/m 8,8 C 16,9 C 8,0 km/h (2 Bft) 100 %
20.08.2014 18:20 16,7 C 16,7 C 16,9 C 61 % 1015,2 hPa 0,0 l/m 0,4 km/h (0 Bft) SW 232 0 min 0,000 mm 111 W/m 9,1 C 16,7 C 6,4 km/h (2 Bft) 100 %
20.08.2014 18:30 16,7 C 16,6 C 16,7 C 59 % 1015,1 hPa 0,0 l/m 0,6 km/h (0 Bft) SW 232 0 min 0,000 mm 116 W/m 8,6 C 16,7 C 6,4 km/h (2 Bft) 100 %
20.08.2014 18:40 16,6 C 16,6 C 16,7 C 61 % 1015,0 hPa 0,0 l/m 0,0 km/h (0 Bft) SW 232 0 min 0,000 mm 121 W/m 9,0 C 16,6 C 1,6 km/h (1 Bft) 99 %
20.08.2014 18:50 16,6 C 16,6 C 16,7 C 61 % 1015,0 hPa 0,0 l/m 0,3 km/h (0 Bft) SW 233 0 min 0,000 mm 142 W/m 9,0 C 16,6 C 4,8 km/h (1 Bft) 99 %
20.08.2014 19:00 16,6 C 16,6 C 16,7 C 60 % 1015,0 hPa 0,0 l/m 0,1 km/h (0 Bft) SW 233 0 min 0,077 mm 141 W/m 8,8 C 16,6 C 4,8 km/h (1 Bft) 99 %
20.08.2014 19:10 16,5 C 16,5 C 16,6 C 58 % 1015,0 hPa 0,0 l/m 0,0 km/h (0 Bft) SW 233 0 min 0,000 mm 113 W/m 8,2 C 16,5 C 1,6 km/h (1 Bft) 100 %
20.08.2014 19:20 16,5 C 16,5 C 16,5 C 62 % 1015,0 hPa 0,0 l/m 0,0 km/h (0 Bft) SW 233 0 min 0,000 mm 84 W/m 9,2 C 16,5 C 1,6 km/h (1 Bft) 100 %
20.08.2014 19:30 16,2 C 16,2 C 16,5 C 63 % 1015,1 hPa 0,0 l/m 0,0 km/h (0 Bft) SW 233 0 min 0,000 mm 76 W/m 9,1 C 16,2 C 1,6 km/h (1 Bft) 100 %
20.08.2014 19:40 16,1 C 16,1 C 16,2 C 66 % 1015,1 hPa 0,0 l/m 0,0 km/h (0 Bft) SW 233 0 min 0,000 mm 58 W/m 9,7 C 16,1 C 0,0 km/h (0 Bft) 100 %
20.08.2014 19:50 15,9 C 15,9 C 16,1 C 71 % 1015,1 hPa 0,0 l/m 0,0 km/h (0 Bft) SW 233 0 min 0,000 mm 35 W/m 10,6 C 15,9 C 1,6 km/h (1 Bft) 100 %
20.08.2014 20:00 15,5 C 15,5 C 15,9 C 69 % 1015,2 hPa 0,0 l/m 0,0 km/h (0 Bft) SW 233 0 min 0,050 mm 21 W/m 9,8 C 15,5 C 1,6 km/h (1 Bft) 99 %
20.08.2014 20:10 15,1 C 15,1 C 15,5 C 70 % 1015,3 hPa 0,0 l/m 0,2 km/h (0 Bft) SW 233 0 min 0,000 mm 11 W/m 9,7 C 15,1 C 3,2 km/h (1 Bft) 100 %
20.08.2014 20:20 14,8 C 14,8 C 15,1 C 72 % 1015,3 hPa 0,0 l/m 0,0 km/h (0 Bft) SW 233 0 min 0,000 mm 7 W/m 9,8 C 14,8 C 0,0 km/h (0 Bft) 99 %
20.08.2014 20:30 14,3 C 14,3 C 14,8 C 73 % 1015,3 hPa 0,0 l/m 0,0 km/h (0 Bft) SW 233 0 min 0,000 mm 0 W/m 9,5 C 14,3 C 0,0 km/h (0 Bft) 100 %
20.08.2014 20:40 13,9 C 13,9 C 14,3 C 74 % 1015,4 hPa 0,0 l/m 0,0 km/h (0 Bft) SW 233 0 min 0,000 mm 0 W/m 9,3 C 13,9 C 0,0 km/h (0 Bft) 100 %
20.08.2014 20:50 13,6 C 13,6 C 13,9 C 75 % 1015,4 hPa 0,0 l/m 0,0 km/h (0 Bft) SW 233 0 min 0,000 mm 0 W/m 9,3 C 13,6 C 0,0 km/h (0 Bft) 100 %
20.08.2014 21:00 13,3 C 13,3 C 13,6 C 73 % 1015,4 hPa 0,0 l/m 0,0 km/h (0 Bft) SW 233 0 min 0,000 mm 0 W/m 8,6 C 13,3 C 1,6 km/h (1 Bft) 99 %
20.08.2014 21:10 13,1 C 13,1 C 13,3 C 75 % 1015,4 hPa 0,0 l/m 0,0 km/h (0 Bft) SW 233 0 min 0,000 mm 0 W/m 8,8 C 13,1 C 0,0 km/h (0 Bft) 99 %
20.08.2014 21:20 12,9 C 12,9 C 13,1 C 76 % 1015,4 hPa 0,0 l/m 0,0 km/h (0 Bft) SW 233 0 min 0,000 mm 0 W/m 8,8 C 12,9 C 0,0 km/h (0 Bft) 100 %
20.08.2014 21:30 12,7 C 12,7 C 12,9 C 78 % 1015,4 hPa 0,0 l/m 0,0 km/h (0 Bft) SW 233 0 min 0,000 mm 0 W/m 9,0 C 12,7 C 0,0 km/h (0 Bft) 100 %
20.08.2014 21:40 12,6 C 12,6 C 12,7 C 80 % 1015,4 hPa 0,0 l/m 0,0 km/h (0 Bft) SW 233 0 min 0,000 mm 0 W/m 9,2 C 12,6 C 0,0 km/h (0 Bft) 100 %
20.08.2014 21:50 12,6 C 12,6 C 12,6 C 80 % 1015,4 hPa 0,0 l/m 0,0 km/h (0 Bft) SW 233 0 min 0,000 mm 0 W/m 9,2 C 12,6 C 0,0 km/h (0 Bft) 100 %
20.08.2014 22:00 12,5 C 12,5 C 12,6 C 80 % 1015,5 hPa 0,0 l/m 0,0 km/h (0 Bft) SW 233 0 min 0,026 mm 0 W/m 9,1 C 12,5 C 0,0 km/h (0 Bft) 100 %
20.08.2014 22:10 12,5 C 12,5 C 12,5 C 79 % 1015,7 hPa 0,0 l/m 0,0 km/h (0 Bft) SW 233 0 min 0,000 mm 0 W/m 9,0 C 12,5 C 0,0 km/h (0 Bft) 100 %
20.08.2014 22:20 12,6 C 12,5 C 12,6 C 81 % 1015,7 hPa 0,0 l/m 0,0 km/h (0 Bft) SW 233 0 min 0,000 mm 0 W/m 9,4 C 12,6 C 0,0 km/h (0 Bft) 100 %
20.08.2014 22:30 12,5 C 12,5 C 12,6 C 81 % 1015,8 hPa 0,0 l/m 0,0 km/h (0 Bft) SW 233 0 min 0,000 mm 0 W/m 9,3 C 12,5 C 0,0 km/h (0 Bft) 99 %
20.08.2014 22:40 12,5 C 12,5 C 12,5 C 82 % 1015,8 hPa 0,0 l/m 0,0 km/h (0 Bft) SW 233 0 min 0,000 mm 0 W/m 9,5 C 12,5 C 0,0 km/h (0 Bft) 100 %
20.08.2014 22:50 12,4 C 12,4 C 12,5 C 83 % 1015,8 hPa 0,0 l/m 0,1 km/h (0 Bft) SW 233 0 min 0,000 mm 0 W/m 9,6 C 12,4 C 1,6 km/h (1 Bft) 100 %
20.08.2014 23:00 12,4 C 12,4 C 12,4 C 83 % 1015,8 hPa 0,0 l/m 0,0 km/h (0 Bft) SW 233 0 min 0,025 mm 0 W/m 9,6 C 12,4 C 0,0 km/h (0 Bft) 100 %
20.08.2014 23:10 12,3 C 12,3 C 12,4 C 84 % 1015,8 hPa 0,0 l/m 0,0 km/h (0 Bft) SW 233 0 min 0,000 mm 0 W/m 9,7 C 12,3 C 0,0 km/h (0 Bft) 100 %
20.08.2014 23:20 12,2 C 12,2 C 12,3 C 83 % 1015,7 hPa 0,0 l/m 0,0 km/h (0 Bft) SW 233 0 min 0,000 mm 0 W/m 9,4 C 12,2 C 0,0 km/h (0 Bft) 100 %
20.08.2014 23:30 12,2 C 12,2 C 12,2 C 84 % 1015,7 hPa 0,0 l/m 0,0 km/h (0 Bft) SW 233 0 min 0,000 mm 0 W/m 9,6 C 12,2 C 0,0 km/h (0 Bft) 99 %
20.08.2014 23:40 12,2 C 12,2 C 12,2 C 85 % 1015,7 hPa 0,0 l/m 0,0 km/h (0 Bft) SW 233 0 min 0,000 mm 0 W/m 9,8 C 12,2 C 1,6 km/h (1 Bft) 100 %
20.08.2014 23:50 12,2 C 12,1 C 12,2 C 85 % 1015,6 hPa 0,0 l/m 0,0 km/h (0 Bft) SW 233 0 min 0,000 mm 0 W/m 9,8 C 12,2 C 1,6 km/h (1 Bft) 100 %
_ Min-Zeit 06:20 06:20 06:30 13:00 00:00 - 01:00 - - - - - 06:20 06:20 01:20 06:50
Minimum _ 8,1 C 8,1 C 8,2 C 48 % 1014,4 hPa - 0,0 km/h (0 Bft) - - - - - 6,1 C 8,1 C 0,0 km/h (0 Bft) 96 %
_ Max-Zeit 14:30 14:30 14:30 07:00 09:40 00:00 16:30 - - 08:30 14:10 14:40 19:50 14:30 13:00 09:10
Maximum _ 18,7 C 18,4 C 18,7 C 88 % 1016,8 hPa 0,0 l/m 7,0 km/h
W (2 Bft)
- - 10 min 0,381 mm 833 W/m 10,6 C 18,7 C 17,7 km/h
SW (3 Bft)
100 %
Durchschnitt _ 13,8 C 13,7 C 13,9 C 71 % 1015,7 hPa #0,0 l/m 0,9 km/h (0 Bft) W-NW - #9:20 h #2,743 mm 319 W/m 8,4 C 13,8 C 5,0 km/h (1 Bft) 99 %
PRIVATE WETTERSTATION BILLIGHEIM-ALLFELD - www.neckar-odenwald-wetter.de - Holger Sonntag